| time (UTC) | temp C | wind direction | speed KPH | gust KPH | rain 1hr cm | rain 24hr cm | rain mn cm | humidity % | barometer mb |
| 20260504035606 | 13 | 198 | 4.8 | 6.4 | 0.00 | 0.05 | 0.05 | 72 | 1004.9 |
| 20260504035102 | 13 | 199 | 3.2 | 6.4 | 0.00 | 0.05 | 0.05 | 72 | 1004.8 |
| 20260504034600 | 13 | 192 | 6.4 | 6.4 | 0.00 | 0.05 | 0.05 | 71 | 1005.1 |
| 20260504034057 | 13 | 191 | 0.0 | 8.0 | 0.00 | 0.05 | 0.05 | 71 | 1005.0 |
| 20260504033555 | 13 | 203 | 3.2 | 6.4 | 0.00 | 0.05 | 0.05 | 71 | 1004.9 |
| 20260504033052 | 13 | 209 | 4.8 | 6.4 | 0.00 | 0.05 | 0.05 | 71 | 1005.0 |
| 20260504032549 | 13 | 199 | 3.2 | 6.4 | 0.00 | 0.05 | 0.05 | 71 | 1005.0 |
| 20260504032046 | 13 | 194 | 3.2 | 4.8 | 0.00 | 0.05 | 0.05 | 71 | 1005.2 |
| 20260504031543 | 13 | 195 | 3.2 | 4.8 | 0.00 | 0.05 | 0.05 | 71 | 1005.2 |
| 20260504031039 | 13 | 208 | 3.2 | 4.8 | 0.00 | 0.05 | 0.05 | 72 | 1005.1 |
| 20260504030536 | 13 | 200 | 0.0 | 3.2 | 0.00 | 0.05 | 0.05 | 71 | 1005.1 |
| 20260504030032 | 13 | 180 | 3.2 | 4.8 | 0.00 | 0.05 | 0.05 | 71 | 1005.2 |
| 20260504025530 | 13 | 191 | 1.6 | 3.2 | 0.00 | 0.05 | 0.05 | 71 | 1005.3 |
| 20260504025026 | 13 | 196 | 0.0 | 3.2 | 0.00 | 0.05 | 0.05 | 70 | 1005.2 |
| 20260504024523 | 13 | 209 | 0.0 | 3.2 | 0.00 | 0.05 | 0.05 | 70 | 1005.1 |
| 20260504024020 | 14 | 188 | 0.0 | 3.2 | 0.00 | 0.05 | 0.05 | 69 | 1005.0 |
| 20260504023517 | 14 | 199 | 0.0 | 3.2 | 0.00 | 0.05 | 0.05 | 68 | 1005.1 |
| 20260504023013 | 14 | 192 | 3.2 | 6.4 | 0.00 | 0.05 | 0.05 | 67 | 1005.2 |
| 20260504022508 | 15 | 180 | 1.6 | 4.8 | 0.00 | 0.05 | 0.05 | 67 | 1005.1 |
| 20260504022005 | 15 | 204 | 3.2 | 4.8 | 0.00 | 0.05 | 0.05 | 66 | 1005.1 |
| 20260504021503 | 15 | 202 | 4.8 | 6.4 | 0.00 | 0.05 | 0.05 | 66 | 1005.1 |
| 20260504021000 | 15 | 193 | 4.8 | 6.4 | 0.00 | 0.05 | 0.05 | 66 | 1005.0 |
| 20260504020456 | 15 | 199 | 4.8 | 6.4 | 0.00 | 0.05 | 0.05 | 65 | 1005.0 |
| 20260504015953 | 15 | 187 | 0.0 | 4.8 | 0.00 | 0.05 | 0.05 | 64 | 1004.7 |
| 20260504015449 | 15 | 180 | 6.4 | 9.7 | 0.00 | 0.05 | 0.05 | 63 | 1005.0 |
| 20260504014945 | 15 | 211 | 4.8 | 8.0 | 0.00 | 0.05 | 0.05 | 64 | 1004.6 |
| 20260504014441 | 16 | 188 | 3.2 | 11.3 | 0.00 | 0.05 | 0.05 | 63 | 1004.7 |
| 20260504013938 | 16 | 197 | 4.8 | 6.4 | 0.00 | 0.05 | 0.05 | 63 | 1004.8 |
| 20260504013437 | 16 | 199 | 0.0 | 6.4 | 0.00 | 0.05 | 0.05 | 62 | 1004.6 |
| 20260504012932 | 16 | 201 | 3.2 | 6.4 | 0.00 | 0.05 | 0.05 | 61 | 1004.8 |
| 20260504012431 | 16 | 205 | 4.8 | 11.3 | 0.00 | 0.05 | 0.05 | 60 | 1004.9 |
| 20260504011928 | 16 | 192 | 1.6 | 9.7 | 0.00 | 0.05 | 0.05 | 60 | 1004.8 |
| 20260504011425 | 17 | 201 | 0.0 | 8.0 | 0.00 | 0.05 | 0.05 | 59 | 1004.7 |
| 20260504010920 | 17 | 195 | 0.0 | 8.0 | 0.00 | 0.05 | 0.05 | 59 | 1004.7 |
| 20260504010417 | 17 | 197 | 6.4 | 9.7 | 0.00 | 0.05 | 0.05 | 58 | 1004.6 |
| 20260504005913 | 17 | 195 | 3.2 | 12.9 | 0.00 | 0.05 | 0.05 | 57 | 1004.8 |
| 20260504005410 | 17 | 202 | 6.4 | 12.9 | 0.00 | 0.05 | 0.05 | 57 | 1004.6 |
| 20260504004908 | 17 | 200 | 8.0 | 11.3 | 0.00 | 0.05 | 0.05 | 56 | 1004.4 |
| 20260504004405 | 18 | 197 | 6.4 | 11.3 | 0.00 | 0.05 | 0.05 | 55 | 1004.6 |
| 20260504003902 | 18 | 212 | 3.2 | 17.7 | 0.00 | 0.05 | 0.05 | 56 | 1004.6 |
| 20260504003358 | 18 | 195 | 4.8 | 11.3 | 0.00 | 0.05 | 0.05 | 56 | 1004.8 |
| 20260504002855 | 18 | 201 | 12.9 | 12.9 | 0.00 | 0.05 | 0.05 | 55 | 1004.5 |
| 20260504002352 | 18 | 234 | 4.8 | 12.9 | 0.00 | 0.05 | 0.05 | 54 | 1004.8 |
| 20260504001849 | 19 | 109 | 1.6 | 11.3 | 0.00 | 0.05 | 0.05 | 54 | 1004.7 |
| 20260504001346 | 19 | 194 | 4.8 | 6.4 | 0.00 | 0.05 | 0.05 | 53 | 1004.7 |
| 20260504000843 | 20 | 199 | 6.4 | 17.7 | 0.00 | 0.05 | 0.05 | 53 | 1004.6 |
| 20260504000340 | 20 | 183 | 4.8 | 16.1 | 0.00 | 0.05 | 0.05 | 51 | 1004.7 |
| 20260503235838 | 20 | 190 | 9.7 | 16.1 | 0.00 | 0.05 | 0.05 | 51 | 1004.6 |
| 20260503235335 | 20 | 193 | 9.7 | 17.7 | 0.00 | 0.05 | 0.05 | 50 | 1004.8 |
| 20260503234832 | 20 | 255 | 3.2 | 12.9 | 0.00 | 0.05 | 0.05 | 50 | 1004.7 |
| 20260503234330 | 20 | 166 | 6.4 | 22.5 | 0.00 | 0.05 | 0.05 | 49 | 1005.1 |
| 20260503233828 | 20 | 267 | 12.9 | 17.7 | 0.00 | 0.05 | 0.05 | 49 | 1005.0 |
| 20260503233323 | 20 | 189 | 6.4 | 24.1 | 0.00 | 0.05 | 0.05 | 48 | 1004.6 |
| 20260503232820 | 21 | 185 | 3.2 | 12.9 | 0.00 | 0.05 | 0.05 | 48 | 1004.6 |
| 20260503232318 | 21 | 183 | 4.8 | 20.9 | 0.00 | 0.05 | 0.05 | 47 | 1005.0 |
| 20260503231815 | 21 | 197 | 11.3 | 16.1 | 0.00 | 0.05 | 0.05 | 47 | 1004.9 |
| 20260503231312 | 21 | 194 | 4.8 | 16.1 | 0.00 | 0.05 | 0.05 | 47 | 1004.8 |
| 20260503230808 | 21 | 267 | 0.0 | 20.9 | 0.00 | 0.05 | 0.05 | 46 | 1004.8 |
| 20260503230305 | 21 | 205 | 4.8 | 14.5 | 0.00 | 0.05 | 0.05 | 46 | 1005.0 |
| 20260503225803 | 21 | 198 | 11.3 | 19.3 | 0.00 | 0.05 | 0.05 | 46 | 1005.0 |
| 20260503225258 | 21 | 192 | 11.3 | 11.3 | 0.00 | 0.05 | 0.05 | 46 | 1004.9 |
| 20260503224755 | 21 | 197 | 9.7 | 11.3 | 0.00 | 0.05 | 0.05 | 46 | 1004.9 |
| 20260503224253 | 21 | 199 | 14.5 | 17.7 | 0.00 | 0.05 | 0.05 | 47 | 1005.0 |
| 20260503223750 | 21 | 203 | 0.0 | 14.5 | 0.00 | 0.05 | 0.05 | 47 | 1005.1 |
| 20260503223248 | 21 | 202 | 9.7 | 17.7 | 0.00 | 0.05 | 0.05 | 45 | 1005.1 |
| 20260503222743 | 21 | 208 | 9.7 | 22.5 | 0.00 | 0.05 | 0.05 | 45 | 1005.1 |
| 20260503222242 | 21 | 201 | 11.3 | 17.7 | 0.00 | 0.05 | 0.05 | 45 | 1005.2 |
| 20260503221740 | 21 | 180 | 4.8 | 19.3 | 0.00 | 0.05 | 0.05 | 45 | 1005.2 |
| 20260503221237 | 21 | 219 | 4.8 | 22.5 | 0.00 | 0.05 | 0.05 | 46 | 1005.3 |
| 20260503220733 | 21 | 49 | 3.2 | 22.5 | 0.00 | 0.05 | 0.05 | 45 | 1005.2 |
| 20260503220231 | 21 | 213 | 0.0 | 25.7 | 0.00 | 0.05 | 0.05 | 45 | 1005.2 |
| 20260503215727 | 21 | 197 | 4.8 | 20.9 | 0.00 | 0.05 | 0.05 | 43 | 1005.4 |
| 20260503215224 | 21 | 90 | 0.0 | 12.9 | 0.00 | 0.05 | 0.05 | 44 | 1005.3 |
| 20260503214722 | 20 | 193 | 14.5 | 14.5 | 0.00 | 0.05 | 0.05 | 47 | 1005.5 |
| 20260503214219 | 20 | 202 | 8.0 | 16.1 | 0.00 | 0.05 | 0.05 | 45 | 1005.7 |
| 20260503213717 | 20 | 206 | 11.3 | 20.9 | 0.00 | 0.05 | 0.05 | 45 | 1005.4 |
| 20260503213214 | 20 | 241 | 3.2 | 11.3 | 0.00 | 0.05 | 0.05 | 47 | 1005.6 |
| 20260503212711 | 19 | 190 | 4.8 | 25.7 | 0.00 | 0.05 | 0.05 | 47 | 1005.7 |
| 20260503212209 | 20 | 209 | 11.3 | 25.7 | 0.00 | 0.05 | 0.05 | 47 | 1005.5 |
| 20260503211706 | 20 | 192 | 3.2 | 25.7 | 0.00 | 0.05 | 0.05 | 45 | 1005.5 |
| 20260503211202 | 20 | 190 | 11.3 | 24.1 | 0.00 | 0.05 | 0.05 | 46 | 1005.7 |
| 20260503210658 | 19 | 208 | 11.3 | 20.9 | 0.00 | 0.05 | 0.05 | 48 | 1005.9 |
| 20260503210155 | 19 | 205 | 9.7 | 22.5 | 0.00 | 0.05 | 0.05 | 46 | 1005.9 |
| 20260503205650 | 20 | 198 | 4.8 | 22.5 | 0.00 | 0.05 | 0.05 | 45 | 1006.0 |
| 20260503205146 | 20 | 185 | 9.7 | 33.8 | 0.00 | 0.05 | 0.05 | 46 | 1006.0 |
| 20260503204643 | 20 | 194 | 16.1 | 30.6 | 0.00 | 0.05 | 0.05 | 45 | 1006.2 |
| 20260503204141 | 19 | 198 | 12.9 | 24.1 | 0.00 | 0.05 | 0.05 | 47 | 1006.2 |
| 20260503203638 | 18 | 190 | 8.0 | 25.7 | 0.00 | 0.05 | 0.05 | 48 | 1006.6 |
| 20260503203136 | 18 | 189 | 3.2 | 19.3 | 0.00 | 0.05 | 0.05 | 48 | 1006.6 |
| 20260503202633 | 18 | 207 | 11.3 | 25.7 | 0.00 | 0.05 | 0.05 | 47 | 1006.6 |
| 20260503202131 | 18 | 200 | 16.1 | 35.4 | 0.00 | 0.05 | 0.05 | 46 | 1006.6 |
| 20260503201628 | 19 | 199 | 8.0 | 32.2 | 0.00 | 0.05 | 0.05 | 47 | 1007.3 |
| 20260503201126 | 18 | 200 | 17.7 | 35.4 | 0.00 | 0.05 | 0.05 | 45 | 1007.0 |
| 20260503200621 | 18 | 210 | 11.3 | 24.1 | 0.00 | 0.05 | 0.05 | 44 | 1007.2 |
| 20260503200118 | 20 | 198 | 14.5 | 24.1 | 0.00 | 0.05 | 0.05 | 44 | 1007.1 |
| 20260503195615 | 19 | 201 | 25.7 | 25.7 | 0.00 | 0.05 | 0.05 | 44 | 1007.1 |
| 20260503195112 | 18 | 218 | 11.3 | 27.4 | 0.00 | 0.05 | 0.05 | 46 | 1007.3 |
| 20260503194609 | 18 | 196 | 11.3 | 30.6 | 0.00 | 0.05 | 0.05 | 46 | 1007.2 |
| 20260503194104 | 18 | 197 | 20.9 | 37.0 | 0.00 | 0.05 | 0.05 | 45 | 1007.3 |
| 20260503193601 | 17 | 207 | 4.8 | 27.4 | 0.00 | 0.05 | 0.05 | 46 | 1007.5 |
| 20260503193056 | 18 | 196 | 12.9 | 41.8 | 0.00 | 0.05 | 0.05 | 45 | 1007.3 |
| 20260503192553 | 18 | 238 | 4.8 | 33.8 | 0.00 | 0.05 | 0.05 | 46 | 1007.6 |
| 20260503192048 | 18 | 197 | 22.5 | 33.8 | 0.00 | 0.05 | 0.05 | 47 | 1007.5 |
| 20260503191545 | 18 | 197 | 22.5 | 27.4 | 0.00 | 0.05 | 0.05 | 47 | 1007.6 |
| 20260503191042 | 18 | 192 | 8.0 | 38.6 | 0.00 | 0.05 | 0.05 | 47 | 1007.4 |
| 20260503190539 | 18 | 201 | 20.9 | 27.4 | 0.00 | 0.05 | 0.05 | 49 | 1007.5 |
| 20260503190037 | 18 | 197 | 14.5 | 32.2 | 0.00 | 0.05 | 0.05 | 48 | 1007.7 |
| 20260503185533 | 18 | 197 | 20.9 | 30.6 | 0.00 | 0.05 | 0.05 | 49 | 1007.8 |
| 20260503185032 | 18 | 202 | 17.7 | 33.8 | 0.00 | 0.05 | 0.05 | 52 | 1007.7 |
| 20260503184529 | 17 | 229 | 8.0 | 29.0 | 0.00 | 0.05 | 0.05 | 53 | 1008.0 |
| 20260503184026 | 17 | 188 | 6.4 | 25.7 | 0.00 | 0.05 | 0.05 | 54 | 1008.3 |
| 20260503183522 | 17 | 217 | 24.1 | 35.4 | 0.00 | 0.05 | 0.05 | 54 | 1008.3 |
| 20260503183019 | 17 | 184 | 6.4 | 20.9 | 0.00 | 0.05 | 0.05 | 60 | 1008.5 |
| 20260503182518 | 16 | 226 | 8.0 | 19.3 | 0.00 | 0.05 | 0.05 | 60 | 1008.6 |
| 20260503182015 | 16 | 194 | 14.5 | 24.1 | 0.00 | 0.05 | 0.05 | 60 | 1008.6 |
| 20260503181512 | 16 | 218 | 8.0 | 22.5 | 0.00 | 0.05 | 0.05 | 62 | 1008.9 |
| 20260503181008 | 16 | 193 | 8.0 | 16.1 | 0.00 | 0.05 | 0.05 | 64 | 1009.0 |
| 20260503180506 | 15 | 180 | 0.0 | 17.7 | 0.00 | 0.05 | 0.05 | 63 | 1009.5 |
| 20260503180003 | 15 | 341 | 4.8 | 25.7 | 0.00 | 0.05 | 0.05 | 65 | 1009.4 |
| 20260503175501 | 15 | 139 | 3.2 | 19.3 | 0.00 | 0.05 | 0.05 | 65 | 1009.6 |
| 20260503174956 | 13 | 191 | 8.0 | 25.7 | 0.00 | 0.05 | 0.05 | 66 | 1009.7 |
| 20260503174455 | 12 | 117 | 0.0 | 16.1 | 0.00 | 0.05 | 0.05 | 70 | 1010.1 |
| 20260503173950 | 12 | 200 | 11.3 | 19.3 | 0.00 | 0.05 | 0.05 | 69 | 1010.3 |
| 20260503173446 | 12 | 191 | 8.0 | 20.9 | 0.00 | 0.05 | 0.05 | 71 | 1010.7 |
| 20260503172943 | 12 | 200 | 12.9 | 14.5 | 0.00 | 0.05 | 0.05 | 72 | 1010.7 |
| 20260503172440 | 12 | 29 | 3.2 | 20.9 | 0.00 | 0.05 | 0.05 | 72 | 1010.8 |
| 20260503171937 | 12 | 185 | 4.8 | 11.3 | 0.00 | 0.05 | 0.05 | 72 | 1011.2 |
| 20260503171433 | 12 | 196 | 11.3 | 11.3 | 0.00 | 0.05 | 0.05 | 73 | 1011.0 |
| 20260503170931 | 11 | 106 | 4.8 | 12.9 | 0.00 | 0.05 | 0.05 | 72 | 1011.3 |
| 20260503170427 | 11 | 180 | 4.8 | 8.0 | 0.00 | 0.05 | 0.05 | 76 | 1011.3 |
| 20260503150819 | 10 | 196 | 8.0 | 8.0 | 0.13 | 0.03 | 0.03 | 78 | 1013.3 |
| 20260503150315 | 10 | 186 | 0.0 | 12.9 | 0.05 | 0.00 | 0.00 | 75 | 1013.5 |
| 20260503140240 | 11 | 199 | 17.7 | 27.4 | 0.00 | 0.00 | 0.00 | 63 | 1013.0 |
| 20260503131209 | 10 | 198 | 16.1 | 16.1 | 0.00 | 0.00 | 0.00 | 66 | 1013.5 |
| 20260503130707 | 10 | 191 | 1.6 | 14.5 | 0.00 | 0.00 | 0.00 | 66 | 1013.3 |
| 20260503130204 | 10 | 194 | 6.4 | 12.9 | 0.00 | 0.00 | 0.00 | 67 | 1013.3 |
| 20260503120130 | 7 | 184 | 8.0 | 16.1 | 0.00 | 0.00 | 0.00 | 71 | 1013.1 |
| 20260503110557 | 7 | 201 | 4.8 | 11.3 | 0.00 | 0.00 | 0.00 | 71 | 1013.4 |
| 20260503090444 | 6 | 194 | 1.6 | 8.0 | 0.00 | 0.00 | 0.00 | 71 | 1013.7 |
| 20260503081410 | 5 | 186 | 1.6 | 6.4 | 0.00 | 0.00 | 0.00 | 72 | 1014.0 |
| 20260503080908 | 6 | 183 | 3.2 | 8.0 | 0.00 | 0.00 | 0.00 | 73 | 1013.7 |
| 20260503080404 | 6 | 183 | 3.2 | 4.8 | 0.00 | 0.00 | 0.00 | 72 | 1013.9 |
| 20260503072840 | 6 | 180 | 1.6 | 6.4 | 0.00 | 0.00 | 0.00 | 71 | 1013.8 |
| 20260503072337 | 6 | 171 | 3.2 | 9.7 | 0.00 | 0.00 | 0.00 | 70 | 1013.9 |
| 20260503071834 | 6 | 183 | 4.8 | 4.8 | 0.00 | 0.00 | 0.00 | 71 | 1013.6 |
| 20260503071331 | 6 | 197 | 3.2 | 4.8 | 0.00 | 0.00 | 0.00 | 70 | 1014.0 |
| 20260503070827 | 6 | 180 | 3.2 | 4.8 | 0.00 | 0.00 | 0.00 | 70 | 1013.9 |
| 20260503070326 | 6 | 184 | 3.2 | 3.2 | 0.00 | 0.00 | 0.00 | 69 | 1014.0 |
| 20260503060250 | 6 | 194 | 1.6 | 8.0 | 0.00 | 0.00 | 0.00 | 67 | 1014.6 |
| 20260503054737 | 6 | 171 | 3.2 | 4.8 | 0.00 | 0.00 | 0.00 | 66 | 1014.4 |
| 20260503054234 | 6 | 180 | 3.2 | 6.4 | 0.00 | 0.00 | 0.00 | 67 | 1014.6 |
| 20260503053732 | 6 | 187 | 4.8 | 6.4 | 0.00 | 0.00 | 0.00 | 67 | 1014.7 |
| 20260503053231 | 6 | 183 | 4.8 | 4.8 | 0.00 | 0.00 | 0.00 | 67 | 1014.6 |
| 20260503052726 | 6 | 180 | 0.0 | 4.8 | 0.00 | 0.00 | 0.00 | 67 | 1014.7 |
| 20260503052223 | 6 | 188 | 0.0 | 6.4 | 0.00 | 0.00 | 0.00 | 66 | 1014.8 |
| 20260503051718 | 6 | 183 | 3.2 | 4.8 | 0.00 | 0.00 | 0.00 | 65 | 1014.8 |
| 20260503051217 | 6 | 214 | 0.0 | 3.2 | 0.00 | 0.00 | 0.00 | 66 | 1014.8 |
| 20260503050713 | 6 | 172 | 3.2 | 4.8 | 0.00 | 0.00 | 0.00 | 65 | 1014.7 |
| 20260503050209 | 6 | 190 | 3.2 | 4.8 | 0.00 | 0.00 | 0.00 | 65 | 1015.0 |
| 20260503045707 | 6 | 180 | 0.0 | 4.8 | 0.00 | 0.00 | 0.00 | 65 | 1014.8 |
| 20260503045204 | 7 | 185 | 1.6 | 3.2 | 0.00 | 0.00 | 0.00 | 64 | 1014.8 |
| 20260503044700 | 7 | 180 | 0.0 | 4.8 | 0.00 | 0.00 | 0.00 | 62 | 1014.8 |
| 20260503044158 | 7 | 206 | 3.2 | 6.4 | 0.00 | 0.00 | 0.00 | 61 | 1014.8 |
| 20260503043655 | 7 | 197 | 4.8 | 6.4 | 0.00 | 0.00 | 0.00 | 61 | 1014.9 |
| 20260503043152 | 7 | 180 | 3.2 | 6.4 | 0.00 | 0.00 | 0.00 | 61 | 1014.9 |
| 20260503042648 | 7 | 192 | 1.6 | 4.8 | 0.00 | 0.00 | 0.00 | 61 | 1014.8 |
| 20260503042145 | 7 | 191 | 0.0 | 4.8 | 0.00 | 0.00 | 0.00 | 61 | 1015.1 |
| 20260503041641 | 7 | 203 | 3.2 | 4.8 | 0.00 | 0.00 | 0.00 | 60 | 1015.0 |
| 20260503041139 | 7 | 198 | 4.8 | 6.4 | 0.00 | 0.00 | 0.00 | 60 | 1015.0 |
| 20260503040636 | 7 | 199 | 3.2 | 6.4 | 0.00 | 0.00 | 0.00 | 59 | 1015.0 |
| 20260503040134 | 7 | 197 | 3.2 | 8.0 | 0.00 | 0.00 | 0.00 | 59 | 1015.1 |
| 20260503035630 | 7 | 206 | 4.8 | 4.8 | 0.00 | 0.00 | 0.00 | 60 | 1015.1 |